Tracking 28081 objects as of 26-Sep-2023
HD Live streaming from Space Station
objects crossing your sky now

STARLINK-3102

Track STARLINK-3102 now!
10-day predictions
STARLINK-3102 is classified as:


NORAD ID: 49151
Int'l Code: 2021-082X
Perigee: 577.0 km
Apogee: 581.4 km
Inclination: 70.0 °
Period: 96.1 minutes
Semi major axis: 6950 km
RCS: Unknown
Launch date: September 14, 2021
Source: United States (US)
Launch site: AIR FORCE WESTERN TEST RANGE (AFWTR)
Your satellite tracking list
Your tracking list is empty




NASA's NSSDC Master Catalog

Two Line Element Set (TLE):
1 49151U 21082X   23268.52347688  .00001809  00000-0  15930-3 0  9996
2 49151  70.0008 354.0086 0003131 261.6921  98.3883 14.98336582113933
Source of the keplerian elements: AFSPC